Powrót do katalogu

STARLINK-34282

AktywnyŁącznośćVLEO
NORAD 64454·PAYLOAD·🇺🇸 United States

Wystrzelony Jun 18, 2025 z Cape Canaveral Space Force Station

Loading…

Następne Przeloty (najbliższe 24 godziny)

TLE

ŚwieżeSource: CelesTrak SupGP

Epoka: Sep 15, 2026, 02:42 UTC

1 64454C 25130S   26258.11298611  .00011072  00000+0  35597-3 0  2586
2 64454  53.1580 289.6866 0001349  94.2853 154.0864 15.31702634    11

Śledź STARLINK-34282 w czasie rzeczywistym z AllMySat

Download on the App Store